Okean 3 Rocket - Orbit

View from above orbital plane
View from above orbital plane
View from above satellite
View from above satellite

Ground track
Ground track

The orbit data is extracted from the following two-line orbital elements,

1 21398U 91039B   13144.49758252  .00000334  00000-0  42176-4 0  4371
2 21398 082.5219 167.5565 0021581 011.3456 136.8042 14.78856246184406
Epoch (UTC): 24 May 2013 11:56:31
Eccentricity: 0.0021581
inclination: 82.5219°
perigee height: 618 km
apogee height: 648 km
right ascension of ascending node: 167.5565°
argument of perigee: 11.3456°
revolutions per day: 14.78856246
mean anomaly at epoch: 136.8042°
orbit number at epoch: 18440

The dashed part of the orbit path shows where the satellite is in the earth's shadow,  

Developed and maintained by Chris Peat, Heavens-Above GmbH. Please read the updated FAQ before sending e-mail. Imprint. DLR